User: anonymous   Login
Location: ????????
(55.6189°N, 38.3031°E)
Time: 15:27:46
(UTC+00:00)
Language:

PAYLOAD A - Orbit

View from above orbital plane
View from above orbital plane
View from above satellite
View from above satellite

Ground track
Ground track

The orbit data is extracted from the following two-line orbital elements,

1 27840U 03031A   20024.50844941 -.00000017  00000-0  79986-5 0  9994
2 27840  98.3023   0.6246 0099087 134.0943 226.8454 14.38932061870129
Epoch (UTC): 24 January 2020 12:12:10
Eccentricity: 0.0099087
inclination: 98.3023°
perigee height: 691 km
apogee height: 833 km
right ascension of ascending node: 0.6246°
argument of perigee: 134.0943°
revolutions per day: 14.38932061
mean anomaly at epoch: 226.8454°
orbit number at epoch: 87012

The dashed part of the orbit path shows where the satellite is in the earth's shadow,  

DLR